Time,TemperatureF,DewpointF,PressureIn,WindDirection,WindDirectionDegrees,WindSpeedMPH,WindSpeedGustMPH,Humidity,HourlyPrecipIn,Conditions,Clouds,dailyrainin,SoftwareType,DateUTC
2013-02-12 00:02:00,61.0,59.0,30.10,SSE,154,0.0,0.0,93,0.00,,,0.00,meteohub,2013-02-12 05:02:00,
2013-02-12 00:12:00,61.0,59.0,30.10,SSE,154,0.0,0.0,93,0.00,,,0.00,meteohub,2013-02-12 05:12:00,
2013-02-12 00:17:00,61.0,59.0,30.10,SSE,154,0.0,0.0,93,0.00,,,0.00,meteohub,2013-02-12 05:17:00,
2013-02-12 00:22:00,60.8,58.8,30.10,SSE,154,0.0,0.0,93,0.00,,,0.00,meteohub,2013-02-12 05:22:00,
2013-02-12 00:27:00,60.6,58.6,30.10,SSE,154,0.0,0.0,93,0.00,,,0.00,meteohub,2013-02-12 05:27:00,
2013-02-12 00:32:00,60.4,58.5,30.10,SSE,154,0.0,0.0,93,0.00,,,0.00,meteohub,2013-02-12 05:32:00,
2013-02-12 00:37:00,60.3,58.3,30.10,SSE,154,0.0,0.0,93,0.00,,,0.00,meteohub,2013-02-12 05:37:00,
2013-02-12 00:42:00,60.1,58.1,30.10,SSE,154,0.0,0.0,93,0.00,,,0.00,meteohub,2013-02-12 05:42:00,
2013-02-12 00:47:00,60.1,58.1,30.10,SSE,154,0.0,0.0,93,0.00,,,0.00,meteohub,2013-02-12 05:47:00,
2013-02-12 00:52:00,60.1,58.1,30.10,SSE,154,0.0,0.0,93,0.00,,,0.00,meteohub,2013-02-12 05:52:00,
2013-02-12 00:57:00,59.9,57.9,30.10,SSE,154,0.0,0.0,93,0.00,,,0.00,meteohub,2013-02-12 05:57:00,
2013-02-12 01:02:00,59.9,57.9,30.10,SSE,154,0.0,0.0,93,0.00,,,0.00,meteohub,2013-02-12 06:02:00,
2013-02-12 01:07:00,59.9,57.9,30.10,SSE,154,0.0,0.0,93,0.00,,,0.00,meteohub,2013-02-12 06:07:00,
2013-02-12 01:12:00,59.9,58.1,30.10,SSE,154,0.0,0.0,94,0.00,,,0.00,meteohub,2013-02-12 06:12:00,
2013-02-12 01:17:00,60.1,58.3,30.10,SSE,154,0.0,0.0,94,0.00,,,0.00,meteohub,2013-02-12 06:17:00,
2013-02-12 01:22:00,60.3,58.5,30.10,SSE,154,0.0,0.0,94,0.00,,,0.00,meteohub,2013-02-12 06:22:00,
2013-02-12 01:27:00,60.4,58.6,30.10,SSE,154,0.0,0.0,94,0.00,,,0.00,meteohub,2013-02-12 06:27:00,
2013-02-12 01:32:00,60.4,58.6,30.10,SSE,154,0.0,0.0,94,0.00,,,0.00,meteohub,2013-02-12 06:32:00,
2013-02-12 01:37:00,60.6,58.8,30.10,SSE,154,0.0,0.0,94,0.00,,,0.00,meteohub,2013-02-12 06:37:00,
2013-02-12 01:42:00,61.0,59.2,30.10,SSE,154,0.0,0.0,94,0.00,,,0.00,meteohub,2013-02-12 06:42:00,
2013-02-12 01:47:00,61.2,59.4,30.10,SSE,154,0.0,0.0,94,0.00,,,0.00,meteohub,2013-02-12 06:47:00,
2013-02-12 01:52:00,61.2,59.4,30.10,SSE,154,0.0,0.0,94,0.00,,,0.00,meteohub,2013-02-12 06:52:00,
2013-02-12 01:57:00,61.2,59.4,30.10,SSE,154,0.0,0.0,94,0.00,,,0.00,meteohub,2013-02-12 06:57:00,
2013-02-12 02:02:00,61.3,59.5,30.09,SSE,154,0.0,0.0,94,0.00,,,0.00,meteohub,2013-02-12 07:02:00,
2013-02-12 02:07:00,61.3,59.5,30.10,SSE,154,0.0,0.0,94,0.00,,,0.00,meteohub,2013-02-12 07:07:00,
2013-02-12 02:12:00,61.3,59.5,30.10,SSE,154,0.0,0.0,94,0.00,,,0.00,meteohub,2013-02-12 07:12:00,
2013-02-12 02:17:00,61.7,59.9,30.09,SSE,154,0.0,0.0,94,0.00,,,0.00,meteohub,2013-02-12 07:17:00,
2013-02-12 02:22:00,61.9,60.1,30.09,SSE,154,0.0,0.0,94,0.00,,,0.00,meteohub,2013-02-12 07:22:00,
2013-02-12 02:27:00,62.1,60.3,30.09,SSE,154,0.0,0.0,94,0.00,,,0.00,meteohub,2013-02-12 07:27:00,
2013-02-12 02:32:00,62.2,60.4,30.09,SSE,154,0.0,3.0,94,0.00,,,0.00,meteohub,2013-02-12 07:32:00,
2013-02-12 02:37:00,62.4,60.6,30.09,SSE,154,3.0,3.0,94,0.00,,,0.00,meteohub,2013-02-12 07:37:00,
2013-02-12 02:42:00,62.8,61.0,30.09,SSE,154,3.0,4.0,94,0.00,,,0.00,meteohub,2013-02-12 07:42:00,
2013-02-12 02:47:00,63.0,61.2,30.09,SSE,154,2.0,4.0,94,0.00,,,0.00,meteohub,2013-02-12 07:47:00,
2013-02-12 02:52:00,63.0,61.2,30.09,SSE,154,2.0,4.0,94,0.00,,,0.00,meteohub,2013-02-12 07:52:00,
2013-02-12 02:57:00,63.0,61.2,30.09,SE,133,2.0,4.0,94,0.00,,,0.00,meteohub,2013-02-12 07:57:00,
2013-02-12 03:02:00,63.0,61.2,30.09,SE,131,0.0,5.0,94,0.00,,,0.00,meteohub,2013-02-12 08:02:00,
2013-02-12 03:07:00,63.0,61.2,30.09,SE,131,0.0,5.0,94,0.00,,,0.00,meteohub,2013-02-12 08:07:00,
2013-02-12 03:12:00,63.0,61.2,30.08,SE,131,1.0,5.0,94,0.00,,,0.00,meteohub,2013-02-12 08:12:00,
2013-02-12 03:22:00,63.0,61.2,30.08,SE,131,0.0,3.0,94,0.00,,,0.00,meteohub,2013-02-12 08:22:00,
2013-02-12 03:32:00,63.0,61.2,30.08,SE,131,0.0,5.0,94,0.00,,,0.00,meteohub,2013-02-12 08:32:00,
2013-02-12 03:37:00,63.0,61.2,30.08,SE,131,0.0,5.0,94,0.00,,,0.00,meteohub,2013-02-12 08:37:00,
2013-02-12 03:42:00,63.0,61.0,30.08,SE,131,0.0,3.0,93,0.00,,,0.00,meteohub,2013-02-12 08:42:00,
2013-02-12 03:47:00,62.8,60.8,30.08,SE,131,0.0,3.0,93,0.00,,,0.00,meteohub,2013-02-12 08:47:00,
2013-02-12 03:52:00,62.8,60.8,30.08,SE,131,1.0,3.0,93,0.00,,,0.00,meteohub,2013-02-12 08:52:00,
2013-02-12 03:57:00,62.8,60.8,30.08,SE,131,0.0,3.0,93,0.00,,,0.00,meteohub,2013-02-12 08:57:00,
2013-02-12 04:02:00,62.8,60.8,30.08,SE,131,1.0,3.0,93,0.00,,,0.00,meteohub,2013-02-12 09:02:00,
2013-02-12 04:07:00,62.8,60.8,30.08,SE,131,0.0,3.0,93,0.00,,,0.00,meteohub,2013-02-12 09:07:00,
2013-02-12 04:17:00,62.8,60.8,30.08,SE,131,0.0,2.0,93,0.00,,,0.00,meteohub,2013-02-12 09:17:00,
2013-02-12 04:22:00,62.8,60.8,30.08,SE,131,0.0,2.0,93,0.00,,,0.00,meteohub,2013-02-12 09:22:00,
2013-02-12 04:27:00,62.8,60.8,30.07,SE,131,0.0,2.0,93,0.00,,,0.00,meteohub,2013-02-12 09:27:00,
2013-02-12 04:32:00,62.8,60.8,30.07,SE,131,0.0,2.0,93,0.00,,,0.00,meteohub,2013-02-12 09:32:00,
2013-02-12 04:37:00,62.8,60.8,30.07,SE,131,0.0,2.0,93,0.00,,,0.00,meteohub,2013-02-12 09:37:00,
2013-02-12 04:42:00,62.8,60.8,30.07,SE,131,0.0,1.0,93,0.00,,,0.00,meteohub,2013-02-12 09:42:00,
2013-02-12 04:47:00,63.0,61.0,30.07,SE,131,0.0,1.0,93,0.00,,,0.00,meteohub,2013-02-12 09:47:00,
2013-02-12 04:52:00,63.0,61.0,30.07,SE,131,0.0,1.0,93,0.00,,,0.00,meteohub,2013-02-12 09:52:00,
2013-02-12 04:57:00,63.0,61.0,30.07,SE,131,0.0,1.0,93,0.00,,,0.00,meteohub,2013-02-12 09:57:00,
2013-02-12 05:02:00,63.0,61.0,30.07,SE,131,0.0,1.0,93,0.00,,,0.00,meteohub,2013-02-12 10:02:00,
2013-02-12 05:07:00,63.0,60.6,30.07,SE,131,0.0,1.0,92,0.00,,,0.00,meteohub,2013-02-12 10:07:00,
2013-02-12 05:17:00,63.0,60.6,30.07,SE,131,0.0,1.0,92,0.00,,,0.00,meteohub,2013-02-12 10:17:00,
2013-02-12 05:22:00,63.1,60.8,30.07,SE,131,0.0,1.0,92,0.00,,,0.00,meteohub,2013-02-12 10:22:00,
2013-02-12 05:27:00,63.1,60.8,30.07,SE,131,0.0,1.0,92,0.00,,,0.00,meteohub,2013-02-12 10:27:00,
2013-02-12 05:37:00,63.3,61.0,30.07,SE,131,0.0,3.0,92,0.00,,,0.00,meteohub,2013-02-12 10:37:00,
2013-02-12 05:42:00,63.3,61.0,30.07,SE,131,0.0,3.0,92,0.00,,,0.00,meteohub,2013-02-12 10:42:00,
2013-02-12 05:47:00,63.3,61.0,30.07,SE,131,0.0,1.0,92,0.00,,,0.00,meteohub,2013-02-12 10:47:00,
2013-02-12 05:52:00,63.3,61.0,30.07,SE,131,0.0,1.0,92,0.00,,,0.00,meteohub,2013-02-12 10:52:00,
2013-02-12 05:57:00,63.3,61.3,30.07,SE,131,0.0,1.0,93,0.00,,,0.00,meteohub,2013-02-12 10:57:00,
2013-02-12 06:07:00,63.5,61.5,30.07,SE,131,0.0,2.0,93,0.00,,,0.00,meteohub,2013-02-12 11:07:00,
2013-02-12 06:12:00,63.5,61.5,30.07,SE,131,0.0,2.0,93,0.00,,,0.00,meteohub,2013-02-12 11:12:00,
2013-02-12 06:17:00,63.7,61.7,30.07,SE,131,0.0,2.0,93,0.00,,,0.00,meteohub,2013-02-12 11:17:00,
2013-02-12 06:22:00,63.9,61.9,30.06,SE,131,0.0,1.0,93,0.00,,,0.00,meteohub,2013-02-12 11:22:00,
2013-02-12 06:27:00,63.9,61.9,30.07,SE,131,0.0,1.0,93,0.00,,,0.00,meteohub,2013-02-12 11:27:00,
2013-02-12 06:32:00,64.0,62.1,30.07,SE,131,0.0,1.0,93,0.00,,,0.00,meteohub,2013-02-12 11:32:00,
2013-02-12 06:42:00,64.4,62.4,30.07,SE,131,0.0,3.0,93,0.00,,,0.00,meteohub,2013-02-12 11:42:00,
2013-02-12 06:47:00,64.6,62.4,30.07,SE,131,2.0,3.0,93,0.00,,,0.00,meteohub,2013-02-12 11:47:00,
2013-02-12 06:57:00,64.9,63.1,30.07,South,169,1.0,7.0,94,0.00,,,0.00,meteohub,2013-02-12 11:57:00,
2013-02-12 07:02:00,64.9,63.1,30.07,South,170,0.0,7.0,94,0.00,,,0.00,meteohub,2013-02-12 12:02:00,
2013-02-12 07:07:00,65.1,63.3,30.08,South,172,0.0,7.0,94,0.00,,,0.00,meteohub,2013-02-12 12:07:00,
2013-02-12 07:12:00,65.3,63.5,30.08,SSW,195,4.0,6.0,94,0.00,,,0.00,meteohub,2013-02-12 12:12:00,
2013-02-12 07:17:00,65.5,63.7,30.08,SSW,195,2.0,6.0,94,0.00,,,0.00,meteohub,2013-02-12 12:17:00,
2013-02-12 07:22:00,65.5,63.7,30.08,SSW,209,1.0,6.0,94,0.00,,,0.00,meteohub,2013-02-12 12:22:00,
2013-02-12 07:27:00,65.7,63.9,30.08,SW,219,4.0,6.0,94,0.00,,,0.00,meteohub,2013-02-12 12:27:00,
2013-02-12 07:32:00,65.7,63.9,30.09,SW,218,2.0,6.0,94,0.00,,,0.00,meteohub,2013-02-12 12:32:00,
2013-02-12 07:37:00,65.7,63.9,30.09,WSW,239,1.0,7.0,94,0.00,,,0.00,meteohub,2013-02-12 12:37:00,
2013-02-12 07:42:00,65.8,64.0,30.09,SW,227,6.0,7.0,94,0.00,,,0.00,meteohub,2013-02-12 12:42:00,
2013-02-12 07:47:00,65.8,64.0,30.09,SW,219,0.0,8.0,94,0.00,,,0.00,meteohub,2013-02-12 12:47:00,
2013-02-12 07:52:00,65.8,64.0,30.09,South,188,8.0,8.0,94,0.00,,,0.00,meteohub,2013-02-12 12:52:00,
2013-02-12 07:57:00,66.0,64.2,30.09,West,272,5.0,12.0,94,0.00,,,0.00,meteohub,2013-02-12 12:57:00,
2013-02-12 08:02:00,66.0,64.2,30.09,WSW,237,2.0,12.0,94,0.00,,,0.00,meteohub,2013-02-12 13:02:00,
2013-02-12 08:07:00,66.0,64.2,30.09,SSW,203,0.0,12.0,94,0.00,,,0.00,meteohub,2013-02-12 13:07:00,
2013-02-12 08:12:00,66.2,64.4,30.09,SW,229,1.0,11.0,94,0.00,,,0.00,meteohub,2013-02-12 13:12:00,
2013-02-12 08:17:00,66.4,64.6,30.09,SSW,203,2.0,11.0,94,0.00,,,0.00,meteohub,2013-02-12 13:17:00,
2013-02-12 08:22:00,66.4,64.6,30.09,WSW,237,0.0,11.0,94,0.00,,,0.00,meteohub,2013-02-12 13:22:00,
2013-02-12 08:27:00,66.6,64.8,30.09,SW,236,2.0,9.0,94,0.00,,,0.00,meteohub,2013-02-12 13:27:00,
2013-02-12 08:32:00,66.7,64.9,30.09,WSW,255,3.0,11.0,94,0.00,,,0.00,meteohub,2013-02-12 13:32:00,
2013-02-12 08:37:00,66.9,64.8,30.09,SSW,210,1.0,11.0,93,0.00,,,0.00,meteohub,2013-02-12 13:37:00,
2013-02-12 08:42:00,67.3,65.1,30.09,SW,235,3.0,11.0,93,0.00,,,0.00,meteohub,2013-02-12 13:42:00,
2013-02-12 08:47:00,67.5,65.3,30.09,WSW,250,6.0,10.0,93,0.00,,,0.00,meteohub,2013-02-12 13:47:00,
2013-02-12 08:57:00,67.8,65.5,30.09,SW,231,4.0,8.0,92,0.00,,,0.00,meteohub,2013-02-12 13:57:00,
2013-02-12 09:02:00,68.0,65.7,30.10,SSW,213,3.0,9.0,92,0.00,,,0.00,meteohub,2013-02-12 14:02:00,
2013-02-12 09:07:00,68.2,65.8,30.09,WSW,248,3.0,12.0,92,0.00,,,0.00,meteohub,2013-02-12 14:07:00,
2013-02-12 09:12:00,68.4,65.7,30.09,SW,231,1.0,12.0,91,0.00,,,0.00,meteohub,2013-02-12 14:12:00,
2013-02-12 09:22:00,68.5,65.8,30.09,SSW,213,3.0,9.0,91,0.00,,,0.00,meteohub,2013-02-12 14:22:00,
2013-02-12 09:27:00,68.7,66.0,30.09,SW,217,4.0,9.0,91,0.00,,,0.00,meteohub,2013-02-12 14:27:00,
2013-02-12 09:32:00,68.9,65.8,30.09,West,259,4.0,8.0,90,0.00,,,0.00,meteohub,2013-02-12 14:32:00,
2013-02-12 09:37:00,69.1,66.0,30.10,West,272,1.0,10.0,90,0.00,,,0.00,meteohub,2013-02-12 14:37:00,
2013-02-12 09:42:00,69.3,66.2,30.10,West,270,5.0,10.0,90,0.00,,,0.00,meteohub,2013-02-12 14:42:00,
2013-02-12 09:52:00,69.4,66.0,30.10,West,266,5.0,10.0,89,0.00,,,0.00,meteohub,2013-02-12 14:52:00,
2013-02-12 09:57:00,69.4,66.0,30.10,SW,236,3.0,10.0,89,0.00,,,0.00,meteohub,2013-02-12 14:57:00,
2013-02-12 10:02:00,69.6,66.2,30.09,WSW,251,7.0,9.0,89,0.00,,,0.00,meteohub,2013-02-12 15:02:00,
2013-02-12 10:07:00,69.6,66.2,30.09,West,269,2.0,9.0,89,0.00,,,0.00,meteohub,2013-02-12 15:07:00,
2013-02-12 10:12:00,69.8,66.4,30.09,WSW,241,3.0,9.0,89,0.00,,,0.00,meteohub,2013-02-12 15:12:00,
2013-02-12 10:17:00,69.8,66.4,30.10,SSE,167,5.0,9.0,89,0.00,,,0.00,meteohub,2013-02-12 15:17:00,
2013-02-12 10:22:00,70.0,66.6,30.10,West,264,8.0,9.0,89,0.00,,,0.00,meteohub,2013-02-12 15:22:00,
2013-02-12 10:27:00,70.2,66.4,30.10,WSW,252,6.0,9.0,88,0.00,,,0.00,meteohub,2013-02-12 15:27:00,
2013-02-12 10:32:00,70.3,66.6,30.10,SSW,205,6.0,8.0,88,0.00,,,0.00,meteohub,2013-02-12 15:32:00,
2013-02-12 10:42:00,70.5,66.7,30.10,South,190,6.0,12.0,88,0.00,,,0.00,meteohub,2013-02-12 15:42:00,
2013-02-12 10:47:00,70.9,67.1,30.10,SW,218,1.0,12.0,88,0.00,,,0.00,meteohub,2013-02-12 15:47:00,
2013-02-12 10:52:00,70.9,66.7,30.10,WNW,285,1.0,9.0,87,0.00,,,0.00,meteohub,2013-02-12 15:52:00,
2013-02-12 10:57:00,71.1,66.9,30.09,SW,225,2.0,9.0,87,0.00,,,0.00,meteohub,2013-02-12 15:57:00,
2013-02-12 11:07:00,71.6,67.1,30.08,WSW,248,3.0,14.0,86,0.00,,,0.00,meteohub,2013-02-12 16:07:00,
2013-02-12 11:12:00,72.0,67.5,30.08,WSW,256,5.0,14.0,86,0.00,,,0.00,meteohub,2013-02-12 16:12:00,
2013-02-12 11:17:00,72.5,68.0,30.08,SSW,210,10.0,16.0,86,0.00,,,0.00,meteohub,2013-02-12 16:17:00,
2013-02-12 11:22:00,73.0,68.2,30.08,SSW,195,4.0,16.0,85,0.00,,,0.00,meteohub,2013-02-12 16:22:00,
2013-02-12 11:27:00,73.2,68.2,30.08,SW,225,6.0,16.0,84,0.00,,,0.00,meteohub,2013-02-12 16:27:00,
2013-02-12 11:32:00,73.6,68.4,30.07,West,272,5.0,14.0,84,0.00,,,0.00,meteohub,2013-02-12 16:32:00,
2013-02-12 11:37:00,73.6,68.2,30.07,SW,233,2.0,14.0,83,0.00,,,0.00,meteohub,2013-02-12 16:37:00,
2013-02-12 11:42:00,73.6,67.8,30.07,South,179,5.0,13.0,82,0.00,,,0.00,meteohub,2013-02-12 16:42:00,
2013-02-12 11:47:00,73.6,68.2,30.06,SW,234,3.0,12.0,83,0.00,,,0.00,meteohub,2013-02-12 16:47:00,
2013-02-12 11:52:00,73.9,68.2,30.06,WSW,245,4.0,12.0,82,0.00,,,0.00,meteohub,2013-02-12 16:52:00,
2013-02-12 11:57:00,73.9,68.2,30.06,SSW,194,3.0,12.0,82,0.00,,,0.00,meteohub,2013-02-12 16:57:00,
2013-02-12 12:02:00,74.1,68.2,30.06,WSW,256,10.0,10.0,82,0.00,,,0.00,meteohub,2013-02-12 17:02:00,
2013-02-12 12:07:00,74.8,68.9,30.06,SSW,202,5.0,12.0,82,0.00,,,0.00,meteohub,2013-02-12 17:07:00,
2013-02-12 12:12:00,75.4,69.1,30.05,SSW,210,4.0,14.0,81,0.00,,,0.00,meteohub,2013-02-12 17:12:00,
2013-02-12 12:22:00,77.4,69.6,30.05,West,277,7.0,14.0,77,0.00,,,0.00,meteohub,2013-02-12 17:22:00,
2013-02-12 12:27:00,77.2,69.1,30.05,West,276,9.0,13.0,76,0.00,,,0.00,meteohub,2013-02-12 17:27:00,
2013-02-12 12:32:00,76.6,68.9,30.05,West,265,8.0,15.0,77,0.00,,,0.00,meteohub,2013-02-12 17:32:00,
2013-02-12 12:37:00,76.5,68.7,30.04,SW,233,12.0,15.0,77,0.00,,,0.00,meteohub,2013-02-12 17:37:00,
2013-02-12 12:42:00,76.6,68.9,30.04,WSW,250,9.0,15.0,77,0.00,,,0.00,meteohub,2013-02-12 17:42:00,
2013-02-12 12:47:00,77.5,69.4,30.04,South,174,3.0,15.0,76,0.00,,,0.00,meteohub,2013-02-12 17:47:00,
2013-02-12 12:52:00,78.3,70.0,30.04,WSW,247,5.0,14.0,76,0.00,,,0.00,meteohub,2013-02-12 17:52:00,
2013-02-12 12:57:00,78.6,69.6,30.03,WSW,243,2.0,13.0,74,0.00,,,0.00,meteohub,2013-02-12 17:57:00,
2013-02-12 13:02:00,79.0,70.0,30.04,WSW,257,11.0,13.0,74,0.00,,,0.00,meteohub,2013-02-12 18:02:00,
2013-02-12 13:07:00,79.3,70.3,30.03,SSW,205,8.0,13.0,74,0.00,,,0.00,meteohub,2013-02-12 18:07:00,
2013-02-12 13:12:00,79.3,69.4,30.03,SSW,202,9.0,13.0,72,0.00,,,0.00,meteohub,2013-02-12 18:12:00,
2013-02-12 13:22:00,78.6,69.3,30.03,West,272,3.0,18.0,73,0.00,,,0.00,meteohub,2013-02-12 18:22:00,
2013-02-12 13:27:00,79.0,69.3,30.02,SW,216,5.0,18.0,72,0.00,,,0.00,meteohub,2013-02-12 18:27:00,
2013-02-12 13:32:00,79.3,69.1,30.01,West,269,18.0,18.0,71,0.00,,,0.00,meteohub,2013-02-12 18:32:00,
2013-02-12 13:42:00,79.9,69.3,30.01,WSW,241,7.0,18.0,70,0.00,,,0.00,meteohub,2013-02-12 18:42:00,
2013-02-12 13:47:00,80.1,68.9,30.00,WNW,286,4.0,18.0,69,0.00,,,0.00,meteohub,2013-02-12 18:47:00,
2013-02-12 13:52:00,80.1,69.4,30.00,SSE,165,3.0,16.0,70,0.00,,,0.00,meteohub,2013-02-12 18:52:00,
2013-02-12 13:57:00,80.4,68.9,30.00,SSW,192,9.0,16.0,68,0.00,,,0.00,meteohub,2013-02-12 18:57:00,
2013-02-12 14:02:00,81.0,69.4,29.99,SSW,193,6.0,22.0,68,0.00,,,0.00,meteohub,2013-02-12 19:02:00,
2013-02-12 14:07:00,81.7,70.2,29.99,SW,221,7.0,22.0,68,0.00,,,0.00,meteohub,2013-02-12 19:07:00,
2013-02-12 14:12:00,81.9,69.4,29.99,South,190,8.0,22.0,66,0.00,,,0.00,meteohub,2013-02-12 19:12:00,
2013-02-12 14:17:00,82.2,69.3,29.99,WSW,241,6.0,11.0,65,0.00,,,0.00,meteohub,2013-02-12 19:17:00,
2013-02-12 14:22:00,82.2,69.3,29.99,SW,234,7.0,12.0,65,0.00,,,0.00,meteohub,2013-02-12 19:22:00,
2013-02-12 14:27:00,82.6,69.6,29.98,SW,229,7.0,12.0,65,0.00,,,0.00,meteohub,2013-02-12 19:27:00,
2013-02-12 14:32:00,82.9,68.5,29.98,West,278,7.0,12.0,62,0.00,,,0.00,meteohub,2013-02-12 19:32:00,
2013-02-12 14:42:00,82.9,69.4,29.97,WSW,258,3.0,15.0,64,0.00,,,0.00,meteohub,2013-02-12 19:42:00,
2013-02-12 14:47:00,83.1,68.7,29.96,WSW,248,2.0,15.0,62,0.00,,,0.00,meteohub,2013-02-12 19:47:00,
2013-02-12 14:52:00,82.9,68.2,29.96,West,278,6.0,14.0,61,0.00,,,0.00,meteohub,2013-02-12 19:52:00,
2013-02-12 14:57:00,82.9,67.6,29.96,SW,217,7.0,14.0,60,0.00,,,0.00,meteohub,2013-02-12 19:57:00,
2013-02-12 15:02:00,83.1,68.4,29.96,SW,218,10.0,14.0,61,0.00,,,0.00,meteohub,2013-02-12 20:02:00,
2013-02-12 15:07:00,83.1,68.4,29.96,SSW,212,6.0,15.0,61,0.00,,,0.00,meteohub,2013-02-12 20:07:00,
2013-02-12 15:12:00,83.7,68.7,29.95,WNW,302,2.0,15.0,61,0.00,,,0.00,meteohub,2013-02-12 20:12:00,
2013-02-12 15:17:00,83.7,67.8,29.95,SW,233,5.0,15.0,59,0.00,,,0.00,meteohub,2013-02-12 20:17:00,
2013-02-12 15:22:00,83.5,67.6,29.95,WSW,243,7.0,14.0,59,0.00,,,0.00,meteohub,2013-02-12 20:22:00,
2013-02-12 15:27:00,83.5,67.6,29.94,SW,231,7.0,14.0,59,0.00,,,0.00,meteohub,2013-02-12 20:27:00,
2013-02-12 15:32:00,83.5,67.6,29.94,SSW,201,11.0,14.0,59,0.00,,,0.00,meteohub,2013-02-12 20:32:00,
2013-02-12 15:37:00,83.5,68.2,29.94,West,264,7.0,14.0,60,0.00,,,0.00,meteohub,2013-02-12 20:37:00,
2013-02-12 15:42:00,83.5,68.2,29.94,SSW,211,6.0,14.0,60,0.00,,,0.00,meteohub,2013-02-12 20:42:00,
2013-02-12 15:47:00,83.8,68.5,29.94,West,266,4.0,14.0,60,0.00,,,0.00,meteohub,2013-02-12 20:47:00,
2013-02-12 15:57:00,83.5,67.1,29.94,WSW,248,3.0,13.0,58,0.00,,,0.00,meteohub,2013-02-12 20:57:00,
2013-02-12 16:02:00,83.8,66.9,29.94,WSW,239,4.0,13.0,57,0.00,,,0.00,meteohub,2013-02-12 21:02:00,
2013-02-12 16:07:00,83.7,67.8,29.94,SW,229,6.0,12.0,59,0.00,,,0.00,meteohub,2013-02-12 21:07:00,
2013-02-12 16:17:00,83.5,66.6,29.94,West,278,5.0,15.0,57,0.00,,,0.00,meteohub,2013-02-12 21:17:00,
2013-02-12 16:22:00,83.5,66.6,29.94,West,281,10.0,15.0,57,0.00,,,0.00,meteohub,2013-02-12 21:22:00,
2013-02-12 16:27:00,83.5,66.6,29.94,SSW,203,6.0,14.0,57,0.00,,,0.00,meteohub,2013-02-12 21:27:00,
2013-02-12 16:32:00,83.7,66.7,29.93,SSW,200,11.0,11.0,57,0.00,,,0.00,meteohub,2013-02-12 21:32:00,
2013-02-12 16:37:00,83.7,66.7,29.93,SSW,205,9.0,13.0,57,0.00,,,0.00,meteohub,2013-02-12 21:37:00,
2013-02-12 16:42:00,83.1,66.7,29.93,SW,220,8.0,13.0,58,0.00,,,0.00,meteohub,2013-02-12 21:42:00,
2013-02-12 16:47:00,82.6,66.7,29.93,WSW,240,0.0,13.0,59,0.00,,,0.00,meteohub,2013-02-12 21:47:00,
2013-02-12 16:52:00,82.4,66.6,29.93,SSW,192,5.0,12.0,59,0.00,,,0.00,meteohub,2013-02-12 21:52:00,
2013-02-12 16:57:00,82.0,66.4,29.92,South,177,6.0,12.0,59,0.00,,,0.00,meteohub,2013-02-12 21:57:00,
2013-02-12 17:02:00,81.3,66.6,29.92,SW,220,7.0,11.0,61,0.00,,,0.00,meteohub,2013-02-12 22:02:00,
2013-02-12 17:07:00,80.8,66.6,29.92,SSW,206,2.0,11.0,62,0.00,,,0.00,meteohub,2013-02-12 22:07:00,
2013-02-12 17:12:00,80.4,66.2,29.92,SW,214,5.0,11.0,62,0.00,,,0.00,meteohub,2013-02-12 22:12:00,
2013-02-12 17:17:00,80.1,66.4,29.92,SW,217,6.0,11.0,63,0.00,,,0.00,meteohub,2013-02-12 22:17:00,
2013-02-12 17:22:00,79.9,66.6,29.92,SSW,207,4.0,10.0,64,0.00,,,0.00,meteohub,2013-02-12 22:22:00,
2013-02-12 17:27:00,79.5,66.2,29.92,SSW,206,4.0,8.0,64,0.00,,,0.00,meteohub,2013-02-12 22:27:00,
2013-02-12 17:32:00,79.2,66.4,29.92,SSW,207,0.0,8.0,65,0.00,,,0.00,meteohub,2013-02-12 22:32:00,
2013-02-12 17:42:00,78.3,67.3,29.92,SE,131,3.0,6.0,69,0.00,,,0.00,meteohub,2013-02-12 22:42:00,
2013-02-12 17:47:00,76.6,67.3,29.92,SSE,153,4.0,6.0,73,0.00,,,0.00,meteohub,2013-02-12 22:47:00,
2013-02-12 17:52:00,75.6,67.1,29.92,SE,146,3.0,7.0,75,0.00,,,0.00,meteohub,2013-02-12 22:52:00,
2013-02-12 17:57:00,74.8,67.1,29.92,SE,136,2.0,7.0,77,0.00,,,0.00,meteohub,2013-02-12 22:57:00,
2013-02-12 18:02:00,74.1,66.7,29.92,SE,139,2.0,8.0,78,0.00,,,0.00,meteohub,2013-02-12 23:02:00,
2013-02-12 18:07:00,73.8,66.9,29.92,SE,144,0.0,8.0,79,0.00,,,0.00,meteohub,2013-02-12 23:07:00,
2013-02-12 18:12:00,73.2,66.4,29.92,SE,135,0.0,6.0,79,0.00,,,0.00,meteohub,2013-02-12 23:12:00,
2013-02-12 18:17:00,72.9,66.4,29.92,SE,135,1.0,4.0,80,0.00,,,0.00,meteohub,2013-02-12 23:17:00,
2013-02-12 18:22:00,72.5,66.4,29.91,SE,135,0.0,4.0,81,0.00,,,0.00,meteohub,2013-02-12 23:22:00,
2013-02-12 18:27:00,72.1,66.0,29.92,SE,135,0.0,3.0,81,0.00,,,0.00,meteohub,2013-02-12 23:27:00,
2013-02-12 18:32:00,71.8,66.0,29.92,SE,135,0.0,3.0,82,0.00,,,0.00,meteohub,2013-02-12 23:32:00,
2013-02-12 18:37:00,71.2,65.5,29.92,SE,135,0.0,3.0,82,0.00,,,0.00,meteohub,2013-02-12 23:37:00,
2013-02-12 18:42:00,71.1,65.7,29.92,SE,135,0.0,2.0,83,0.00,,,0.00,meteohub,2013-02-12 23:42:00,
2013-02-12 18:47:00,70.5,65.1,29.92,SE,135,0.0,3.0,83,0.00,,,0.00,meteohub,2013-02-12 23:47:00,
2013-02-12 18:57:00,70.0,64.9,29.92,SE,135,0.0,1.0,84,0.00,,,0.00,meteohub,2013-02-12 23:57:00,
2013-02-12 19:02:00,69.4,64.8,29.92,SE,135,0.0,1.0,85,0.00,,,0.00,meteohub,2013-02-13 00:02:00,
2013-02-12 19:12:00,69.1,64.8,29.92,SE,135,0.0,1.0,86,0.00,,,0.00,meteohub,2013-02-13 00:12:00,
2013-02-12 19:17:00,68.5,64.2,29.92,SE,135,0.0,1.0,86,0.00,,,0.00,meteohub,2013-02-13 00:17:00,
2013-02-12 19:27:00,67.8,63.9,29.92,SE,135,0.0,1.0,87,0.00,,,0.00,meteohub,2013-02-13 00:27:00,
2013-02-12 19:32:00,67.6,64.0,29.92,SE,135,0.0,1.0,88,0.00,,,0.00,meteohub,2013-02-13 00:32:00,
2013-02-12 19:37:00,67.5,63.9,29.92,SE,135,0.0,3.0,88,0.00,,,0.00,meteohub,2013-02-13 00:37:00,
2013-02-12 19:42:00,67.3,63.7,29.92,SE,135,1.0,3.0,88,0.00,,,0.00,meteohub,2013-02-13 00:42:00,
2013-02-12 19:47:00,67.3,63.9,29.92,SE,135,0.0,3.0,89,0.00,,,0.00,meteohub,2013-02-13 00:47:00,
2013-02-12 19:52:00,67.1,63.7,29.92,SE,135,0.0,3.0,89,0.00,,,0.00,meteohub,2013-02-13 00:52:00,
2013-02-12 19:57:00,67.3,63.9,29.92,SE,135,0.0,3.0,89,0.00,,,0.00,meteohub,2013-02-13 00:57:00,
2013-02-12 20:02:00,67.3,63.9,29.92,SE,135,1.0,3.0,89,0.00,,,0.00,meteohub,2013-02-13 01:02:00,
2013-02-12 20:07:00,67.3,63.9,29.92,SE,135,0.0,3.0,89,0.00,,,0.00,meteohub,2013-02-13 01:07:00,
2013-02-12 20:12:00,66.9,63.5,29.92,SE,135,0.0,3.0,89,0.00,,,0.00,meteohub,2013-02-13 01:12:00,
2013-02-12 20:22:00,66.6,63.1,29.93,SE,135,0.0,1.0,89,0.00,,,0.00,meteohub,2013-02-13 01:22:00,
2013-02-12 20:27:00,66.4,63.0,29.93,SE,135,0.0,1.0,89,0.00,,,0.00,meteohub,2013-02-13 01:27:00,
2013-02-12 20:32:00,66.4,63.3,29.93,SE,135,0.0,0.0,90,0.00,,,0.00,meteohub,2013-02-13 01:32:00,
2013-02-12 20:37:00,66.0,63.0,29.93,SE,135,0.0,0.0,90,0.00,,,0.00,meteohub,2013-02-13 01:37:00,
2013-02-12 20:42:00,65.8,62.8,29.93,SE,135,0.0,0.0,90,0.00,,,0.00,meteohub,2013-02-13 01:42:00,
2013-02-12 20:47:00,65.5,62.4,29.93,SE,135,0.0,0.0,90,0.00,,,0.00,meteohub,2013-02-13 01:47:00,
2013-02-12 20:52:00,65.3,62.2,29.93,SE,135,0.0,0.0,90,0.00,,,0.00,meteohub,2013-02-13 01:52:00,
2013-02-12 20:57:00,65.1,62.1,29.93,SE,135,0.0,0.0,90,0.00,,,0.00,meteohub,2013-02-13 01:57:00,
2013-02-12 21:02:00,64.9,62.2,29.93,SE,135,0.0,0.0,91,0.00,,,0.00,meteohub,2013-02-13 02:02:00,
2013-02-12 21:07:00,64.8,62.1,29.93,SE,135,0.0,0.0,91,0.00,,,0.00,meteohub,2013-02-13 02:07:00,
2013-02-12 21:12:00,64.6,61.9,29.92,SE,135,0.0,3.0,91,0.00,,,0.00,meteohub,2013-02-13 02:12:00,
2013-02-12 21:17:00,64.6,61.9,29.92,SSW,211,0.0,3.0,91,0.00,,,0.00,meteohub,2013-02-13 02:17:00,
2013-02-12 21:22:00,64.6,62.2,29.92,SSW,211,1.0,5.0,92,0.00,,,0.00,meteohub,2013-02-13 02:22:00,
2013-02-12 21:32:00,66.0,63.7,29.92,South,186,3.0,7.0,92,0.00,,,0.00,meteohub,2013-02-13 02:32:00,
2013-02-12 21:37:00,66.7,64.4,29.92,SW,214,1.0,7.0,92,0.00,,,0.00,meteohub,2013-02-13 02:37:00,
2013-02-12 21:42:00,67.6,64.9,29.92,SSW,211,3.0,7.0,91,0.00,,,0.00,meteohub,2013-02-13 02:42:00,
2013-02-12 21:47:00,68.4,64.9,29.92,WSW,255,3.0,10.0,89,0.00,,,0.00,meteohub,2013-02-13 02:47:00,
2013-02-12 21:52:00,69.1,65.3,29.92,WSW,248,0.0,10.0,88,0.00,,,0.00,meteohub,2013-02-13 02:52:00,
2013-02-12 21:57:00,69.4,65.7,29.92,SW,215,8.0,10.0,88,0.00,,,0.00,meteohub,2013-02-13 02:57:00,
2013-02-12 22:02:00,69.8,65.8,29.92,SW,233,7.0,11.0,87,0.00,,,0.00,meteohub,2013-02-13 03:02:00,
2013-02-12 22:07:00,70.0,66.0,29.92,SW,217,4.0,11.0,87,0.00,,,0.00,meteohub,2013-02-13 03:07:00,
2013-02-12 22:12:00,70.0,66.0,29.93,SW,232,6.0,11.0,87,0.00,,,0.00,meteohub,2013-02-13 03:12:00,
2013-02-12 22:17:00,70.0,65.7,29.93,SW,219,3.0,12.0,86,0.00,,,0.00,meteohub,2013-02-13 03:17:00,
2013-02-12 22:22:00,70.0,65.7,29.93,SW,221,4.0,12.0,86,0.00,,,0.00,meteohub,2013-02-13 03:22:00,
2013-02-12 22:27:00,70.0,66.0,29.92,WSW,241,4.0,8.0,87,0.00,,,0.00,meteohub,2013-02-13 03:27:00,
2013-02-12 22:32:00,70.0,66.0,29.93,SW,222,7.0,8.0,87,0.00,,,0.00,meteohub,2013-02-13 03:32:00,
2013-02-12 22:37:00,69.8,65.8,29.92,SSW,207,5.0,9.0,87,0.00,,,0.00,meteohub,2013-02-13 03:37:00,
2013-02-12 22:42:00,69.8,65.8,29.92,West,262,4.0,11.0,87,0.00,,,0.00,meteohub,2013-02-13 03:42:00,
2013-02-12 22:47:00,69.8,65.8,29.92,SSW,198,4.0,11.0,87,0.00,,,0.00,meteohub,2013-02-13 03:47:00,
2013-02-12 22:52:00,70.0,66.0,29.92,WSW,248,2.0,10.0,87,0.00,,,0.00,meteohub,2013-02-13 03:52:00,
2013-02-12 22:57:00,69.8,65.8,29.92,SW,214,5.0,10.0,87,0.00,,,0.00,meteohub,2013-02-13 03:57:00,
2013-02-12 23:02:00,69.8,65.8,29.92,SSW,203,7.0,11.0,87,0.00,,,0.00,meteohub,2013-02-13 04:02:00,
2013-02-12 23:07:00,69.8,65.8,29.92,SSW,202,4.0,11.0,87,0.00,,,0.00,meteohub,2013-02-13 04:07:00,
2013-02-12 23:12:00,69.8,66.0,29.92,South,171,8.0,11.0,88,0.00,,,0.00,meteohub,2013-02-13 04:12:00,
2013-02-12 23:17:00,69.6,65.8,29.91,South,182,7.0,11.0,88,0.00,,,0.00,meteohub,2013-02-13 04:17:00,
2013-02-12 23:22:00,69.6,65.8,29.91,SSW,207,1.0,11.0,88,0.00,,,0.00,meteohub,2013-02-13 04:22:00,
2013-02-12 23:27:00,69.6,65.8,29.91,SSE,160,7.0,10.0,88,0.00,,,0.00,meteohub,2013-02-13 04:27:00,
2013-02-12 23:32:00,69.8,66.0,29.91,South,172,2.0,11.0,88,0.00,,,0.00,meteohub,2013-02-13 04:32:00,
2013-02-12 23:37:00,69.8,65.8,29.91,South,186,9.0,11.0,87,0.00,,,0.00,meteohub,2013-02-13 04:37:00,
2013-02-12 23:42:00,69.6,65.8,29.91,SSW,199,4.0,10.0,88,0.00,,,0.00,meteohub,2013-02-13 04:42:00,
2013-02-12 23:47:00,69.6,65.8,29.90,South,183,8.0,10.0,88,0.00,,,0.00,meteohub,2013-02-13 04:47:00,
2013-02-12 23:57:00,69.6,65.8,29.90,SSW,195,9.0,12.0,88,0.00,,,0.00,meteohub,2013-02-13 04:57:00,